Flag for U.S.A. Weather past 2 weeks in Nashville, Tennessee, U.S.A.

Now
72 °F

Broken clouds.


Feels Like: 75 °F
Forecast: 61 / 74 °F
Wind: 7 mph from Northeast

Location: Nashville International Airport

Current Time: Sep 16, 2014 at 6:59:10 PM

Latest Report: Sep 16, 2014 at 5:53 PM


Visibility: 10 mi

Pressure: 30.04 "Hg

Humidity: 68%

Dew point: 61 °F

Location of NashvilleLocation

Historic Weather in Nashville — Graph

°F

Nashville temperature yesterday

Maximum temperature yesterday: 76 °F (at 12:53 PM)
Minimum temperature yesterday: 57 °F (at 3:53 AM)
Average temperature yesterday: 66 °F

Past Weeks' High & Low Weather Summary

 TemperatureHumidityPressure
High91 °F (Sep 2, 1:53 PM)100% (Sep 9, 6:53 AM)30.27 "Hg (Sep 9, 6:53 AM)
Low55 °F (Sep 14, 5:53 AM)44% (Sep 14, 3:53 PM)29.85 "Hg (Sep 10, 6:53 PM)
Average74 °F79%30.06 "Hg
* Reported Sep 1 5:53 PM — Sep 16 5:53 PM, Nashville, Weather by CustomWeather, © 2014

Note: Actual official high and low records may vary slightly from our data, if they occured in-between our weather recording intervals... More about our weather records

Advertising

Nashville weather history for previous 24 hours

 ConditionsComfort  
Time TempWeatherWind HumidityBarometerVisibility
5:53 PM
Sep 16
72 °FBroken clouds.7 mph68%30.04 "Hg10 mi
4:53 PM74 °FBroken clouds.7 mph62%30.04 "Hg10 mi
3:53 PM73 °FPartly sunny.No wind66%30.06 "Hg10 mi
2:53 PM72 °FPartly sunny.7 mph68%30.08 "Hg10 mi
1:53 PM71 °FOvercast.9 mph73%30.10 "Hg10 mi
12:53 PM69 °FOvercast.10 mph79%30.11 "Hg10 mi
11:53 AM68 °FLow clouds.9 mph84%30.12 "Hg6 mi
10:53 AM69 °FOvercast.9 mph84%30.13 "Hg9 mi
9:53 AM71 °FOvercast.8 mph78%30.13 "Hg10 mi
8:53 AM70 °FOvercast.8 mph81%30.12 "Hg10 mi
7:53 AM69 °FPartly sunny.5 mph84%30.11 "Hg10 mi
6:53 AM69 °FBroken clouds.3 mph84%30.11 "Hg10 mi
5:53 AM67 °FOvercast.No wind90%30.09 "Hg10 mi
5:01 AM66 °FMostly cloudy.No wind94%30.10 "Hg10 mi
3:53 AM66 °FOvercast.No wind93%30.08 "Hg10 mi
2:53 AM65 °FOvercast.No wind94%30.09 "Hg10 mi
1:53 AM66 °FOvercast.No wind93%30.10 "Hg10 mi
12:53 AM63 °FPassing clouds.5 mph97%30.09 "Hg8 mi
11:53 PM
Sep 15
65 °FPassing clouds.No wind94%30.11 "Hg10 mi
10:53 PM66 °FPassing clouds.No wind90%30.11 "Hg10 mi
9:53 PM66 °FPassing clouds.No wind90%30.11 "Hg10 mi
8:53 PM68 °FPassing clouds.No wind84%30.11 "Hg10 mi
7:53 PM68 °FPartly cloudy.3 mph87%30.11 "Hg10 mi
6:53 PM69 °FPartly sunny.5 mph81%30.09 "Hg10 mi
Weather by CustomWeather, © 2014

See weather overviewHow to use our weather pages